Hillsdale, MI

12:29 PM EST on December 14, 2017 (GMT -0500)
Hillsdale Municipal

Weather History for KJYM - April, 2014

Change the Weather History Date:

Tuesday, April 29, 2014

  Actual Average Record
Temperature  
Mean Temperature 61 °F -  
Max Temperature 75 °F 62 °F 80 °F (1970)
Min Temperature 47 °F 39 °F 25 °F (1977)
Degree Days  
Heating Degree Days 4    
Growing Degree Days 11 (Base 50)    
Moisture  
Dew Point 47 °F    
Average Humidity 72    
Maximum Humidity 100    
Minimum Humidity 25    
Precipitation  
Precipitation 0.00 in - - ()
Sea Level Pressure  
Sea Level Pressure 29.63 in    
Wind  
Wind Speed 13 mph (SSE)    
Max Wind Speed 32 mph    
Max Gust Speed 38 mph    
Visibility 7 miles    
Events Fog , Rain    
Averages and records for this station are not official NWS values.
T = Trace of Precipitation, MM = Missing Value Source: NWS Daily Summary

Daily Weather History Graph

Daily Weather History Graph

Search for Another Location

Airport or City:

Trip Planner

Search our weather history database for the weather conditions in past years. The results will help you decide how hot, cold, wet, or windy it might be!

Date:

Astronomy

Apr. 29, 2014 Rise Set
Actual Time 6:37 AM EDT 8:34 PM EDT
Civil Twilight 6:07 AM EDT 9:05 PM EDT
Nautical Twilight 5:30 AM EDT 9:42 PM EDT
Astronomical Twilight 4:50 AM EDT 10:22 PM EDT
Moon 6:54 AM EDT (4/29) 9:14 PM EDT (4/29)
Length of Visible Light 14h 58m
Length of Day
13h 57m
New Moon, 0% of the Moon is Illuminated
Apr 29
New Moon
May 6
First Quarter
May 14
Full
May 21
Last Quarter
May 28
New

Hourly Weather History & Observations

Time (EDT) Temp. Dew Point Humidity Pressure Visibility Wind Dir Wind Speed Gust Speed Precip Events Conditions
12:15 AM 48.6 °F 44.4 °F 86% 29.72 in 10.0 mi East 18.4 mph 29.9 mph N/A   Overcast
12:35 AM 48.6 °F 44.4 °F 86% 29.71 in 10.0 mi East 18.4 mph 26.5 mph N/A   Overcast
12:54 AM 48.0 °F 45.0 °F 89% 29.69 in 10.0 mi East 16.1 mph 24.2 mph N/A   Overcast
1:15 AM 47.8 °F 45.7 °F 92% 29.68 in 7.0 mi East 20.7 mph 27.6 mph N/A   Overcast
1:35 AM 47.8 °F 46.6 °F 95% 29.65 in 5.0 mi East 15.0 mph 27.6 mph N/A   Overcast
1:54 AM 47.8 °F 46.9 °F 97% 29.64 in 4.0 mi East 16.1 mph 23.0 mph N/A   Overcast
2:15 AM 47.8 °F 47.1 °F 97% 29.65 in 4.0 mi ESE 15.0 mph 20.7 mph N/A   Overcast
2:35 AM 47.8 °F 47.1 °F 97% 29.64 in 4.0 mi ESE 15.0 mph - N/A   Overcast
2:54 AM 47.7 °F 47.1 °F 98% 29.62 in 3.0 mi East 15.0 mph 20.7 mph N/A   Overcast
3:15 AM 47.7 °F 47.5 °F 99% 29.61 in 2.5 mi East 11.5 mph 19.6 mph N/A   Overcast
3:34 AM 47.7 °F 47.5 °F 99% 29.61 in 1.8 mi East 10.4 mph - N/A Rain Light Rain
3:54 AM 47.8 °F 47.8 °F 100% 29.60 in 1.2 mi East 10.4 mph - N/A Rain Light Rain
4:15 AM 48.0 °F 48.0 °F 100% 29.59 in 0.8 mi East 12.7 mph 17.3 mph N/A Rain Light Rain
4:34 AM 47.8 °F 47.8 °F 100% 29.57 in 0.5 mi East 11.5 mph - N/A Rain Light Rain
4:55 AM 47.8 °F 47.8 °F 100% 29.56 in 1.0 mi East 13.8 mph 19.6 mph N/A Rain Rain
5:15 AM 48.0 °F 48.0 °F 100% 29.55 in 4.0 mi East 12.7 mph - N/A   Light Drizzle
5:34 AM 48.6 °F 48.6 °F 100% 29.54 in 3.0 mi East 10.4 mph - N/A Rain Light Rain
5:55 AM 48.6 °F 48.6 °F 100% 29.54 in 4.0 mi East 5.8 mph - N/A Rain Light Rain
6:15 AM 48.9 °F 48.9 °F 100% 29.55 in 3.0 mi ESE 6.9 mph - N/A Rain Rain
6:34 AM 49.5 °F 49.3 °F 99% 29.54 in 4.0 mi East 8.1 mph - N/A Rain Rain
6:55 AM 49.6 °F 49.6 °F 100% 29.53 in 4.0 mi East 6.9 mph - N/A   Overcast
7:14 AM 49.6 °F 49.6 °F 100% 29.53 in 2.5 mi East 8.1 mph - N/A   Overcast
7:35 AM 50.2 °F 50.0 °F 99% 29.54 in 2.0 mi ESE 6.9 mph - N/A   Overcast
7:55 AM 50.5 °F 50.5 °F 100% 29.54 in 1.2 mi ESE 5.8 mph - N/A   Overcast
8:14 AM 51.3 °F 51.3 °F 100% 29.55 in 1.0 mi SE 6.9 mph - N/A   Overcast
8:35 AM 52.0 °F 52.0 °F 100% 29.53 in 1.5 mi ESE 3.5 mph - N/A   Overcast
8:55 AM 52.9 °F 52.9 °F 100% 29.53 in 1.2 mi ESE 5.8 mph - N/A   Overcast
9:14 AM 53.4 °F 53.4 °F 100% 29.54 in 0.5 mi ESE 4.6 mph - N/A Fog Fog
9:35 AM 55.2 °F 55.2 °F 100% 29.53 in 0.5 mi SSE 4.6 mph - N/A Fog Fog
9:54 AM 55.9 °F 55.9 °F 100% 29.55 in 0.5 mi South 6.9 mph - N/A Fog Fog
10:14 AM 56.8 °F 56.8 °F 100% 29.55 in 0.5 mi South 10.4 mph - N/A Fog Fog
10:35 AM 57.6 °F 57.6 °F 100% 29.56 in 2.5 mi SSW 6.9 mph - N/A   Overcast
10:54 AM 58.8 °F 58.8 °F 100% 29.57 in 7.0 mi South 8.1 mph - N/A   Mostly Cloudy
11:15 AM 61.3 °F 58.1 °F 89% 29.57 in 10.0 mi SSW 6.9 mph - N/A   Scattered Clouds
11:35 AM 63.3 °F 57.2 °F 80% 29.58 in 10.0 mi SW 8.1 mph - N/A   Clear
11:54 AM 65.1 °F 55.9 °F 72% 29.59 in 10.0 mi SSW 6.9 mph - N/A   Clear
12:15 PM 67.5 °F 52.7 °F 59% 29.59 in 10.0 mi SW 9.2 mph - N/A   Clear
12:35 PM 68.4 °F 48.6 °F 49% 29.59 in 10.0 mi SW 8.1 mph - N/A   Clear
12:54 PM 70.3 °F 45.7 °F 41% 29.59 in 10.0 mi WSW 6.9 mph - N/A   Clear
1:15 PM 70.5 °F 38.1 °F 31% 29.60 in 10.0 mi SW 12.7 mph - N/A   Clear
1:35 PM 72.1 °F 37.4 °F 28% 29.60 in 10.0 mi SSW 9.2 mph 16.1 mph N/A   Clear
1:54 PM 72.7 °F 35.8 °F 26% 29.60 in 10.0 mi South 16.1 mph - N/A   Clear
2:15 PM 73.6 °F 36.3 °F 26% 29.60 in 10.0 mi SSW 15.0 mph 23.0 mph N/A   Clear
2:34 PM 74.1 °F 37.4 °F 26% 29.61 in 10.0 mi South 12.7 mph 23.0 mph N/A   Clear
2:54 PM 74.1 °F 37.4 °F 26% 29.61 in 10.0 mi SSW 12.7 mph 23.0 mph N/A   Clear
3:14 PM 75.2 °F 38.8 °F 27% 29.61 in 10.0 mi South 15.0 mph 21.9 mph N/A   Scattered Clouds
3:35 PM 74.8 °F 39.9 °F 28% 29.61 in 10.0 mi South 17.3 mph 21.9 mph N/A   Scattered Clouds
3:55 PM 74.3 °F 38.1 °F 27% 29.62 in 10.0 mi South 18.4 mph 24.2 mph N/A   Scattered Clouds
4:14 PM 74.7 °F 36.7 °F 25% 29.62 in 10.0 mi SSW 13.8 mph 31.1 mph N/A   Scattered Clouds
4:35 PM 74.5 °F 38.1 °F 27% 29.62 in 10.0 mi South 17.3 mph 25.3 mph N/A   Scattered Clouds
5:14 PM 74.1 °F 38.8 °F 28% 29.63 in 10.0 mi SSW 19.6 mph 27.6 mph N/A   Scattered Clouds
5:35 PM 72.0 °F 41.9 °F 34% 29.63 in 10.0 mi SSW 9.2 mph 31.1 mph N/A Rain Light Rain
5:54 PM 73.2 °F 39.7 °F 30% 29.64 in 10.0 mi SSW 16.1 mph 25.3 mph N/A   Scattered Clouds
6:14 PM 72.7 °F 41.4 °F 32% 29.64 in 10.0 mi SSW 16.1 mph 26.5 mph N/A   Mostly Cloudy
6:35 PM 73.8 °F 41.4 °F 31% 29.65 in 10.0 mi South 15.0 mph - N/A   Scattered Clouds
6:54 PM 74.1 °F 38.8 °F 28% 29.65 in 10.0 mi SSW 10.4 mph 20.7 mph N/A   Mostly Cloudy
7:15 PM 72.3 °F 35.2 °F 26% 29.66 in 10.0 mi SSW 11.5 mph 25.3 mph N/A   Overcast
7:34 PM 71.2 °F 36.0 °F 27% 29.67 in 10.0 mi SSW 11.5 mph 17.3 mph N/A   Mostly Cloudy
7:55 PM 68.2 °F 42.4 °F 39% 29.72 in 7.0 mi SW 32.2 mph 38.0 mph N/A Rain Rain
8:14 PM 60.4 °F 46.9 °F 61% 29.74 in 10.0 mi SW 13.8 mph - N/A Rain Light Rain
8:34 PM 61.0 °F 45.3 °F 56% 29.75 in 10.0 mi SW 16.1 mph 21.9 mph N/A   Light Drizzle
8:55 PM 59.7 °F 46.2 °F 61% 29.78 in 10.0 mi SW 15.0 mph 25.3 mph N/A Rain Light Rain
9:14 PM 57.9 °F 47.3 °F 68% 29.78 in 10.0 mi South 8.1 mph - N/A Rain Light Rain
9:35 PM 57.0 °F 48.9 °F 74% 29.78 in 10.0 mi South 4.6 mph - N/A Rain Rain
9:55 PM 55.9 °F 50.9 °F 83% 29.78 in 10.0 mi South 3.5 mph - N/A   Overcast
10:14 PM 55.9 °F 50.9 °F 83% 29.76 in 10.0 mi SSE 3.5 mph - N/A Rain Light Rain
10:35 PM 55.9 °F 51.4 °F 85% 29.76 in 10.0 mi SSE 4.6 mph - N/A   Overcast
10:55 PM 55.0 °F 51.3 °F 87% 29.73 in 10.0 mi SE 4.6 mph - N/A   Mostly Cloudy
11:14 PM 54.9 °F 50.9 °F 86% 29.72 in 10.0 mi SE 5.8 mph - N/A   Clear
11:35 PM 54.9 °F 50.2 °F 84% 29.74 in 10.0 mi SE 5.8 mph - N/A   Clear
11:55 PM 54.9 °F 50.5 °F 85% 29.76 in 10.0 mi SE 6.9 mph - N/A   Clear